Time,TemperatureF,DewpointF,PressureIn,WindDirection,WindDirectionDegrees,WindSpeedMPH,WindSpeedGustMPH,Humidity,HourlyPrecipIn,Conditions,Clouds,dailyrainin,SoftwareType,DateUTC
2013-02-07 00:01:00,23.6,8.9,30.32,NW,315,0.0,2.0,53,0.00,,,-99.99,WeatherLink 5.7,2013-02-07 05:01:00,
2013-02-07 00:10:00,23.4,7.9,30.32,NW,315,0.0,2.0,51,0.00,,,-99.99,WeatherLink 5.7,2013-02-07 05:10:00,
2013-02-07 00:21:00,23.1,8.1,30.32,North,-999,0.0,0.0,52,0.00,,,-99.99,WeatherLink 5.7,2013-02-07 05:21:00,
2013-02-07 00:31:00,22.9,7.9,30.32,NW,315,1.0,3.0,52,0.00,,,-99.99,WeatherLink 5.7,2013-02-07 05:31:00,
2013-02-07 00:40:00,22.8,7.8,30.33,WNW,292,0.0,3.0,52,0.00,,,-99.99,WeatherLink 5.7,2013-02-07 05:40:00,
2013-02-07 00:50:00,22.8,7.4,30.33,WNW,292,1.0,4.0,51,0.00,,,-99.99,WeatherLink 5.7,2013-02-07 05:50:00,
2013-02-07 01:01:00,22.8,7.4,30.33,WNW,292,1.0,4.0,51,0.00,,,-99.99,WeatherLink 5.7,2013-02-07 06:01:00,
2013-02-07 01:11:00,22.6,8.0,30.34,WNW,292,0.0,2.0,53,0.00,,,-99.99,WeatherLink 5.7,2013-02-07 06:11:00,
2013-02-07 01:20:00,22.2,7.6,30.34,WNW,292,0.0,2.0,53,0.00,,,-99.99,WeatherLink 5.7,2013-02-07 06:20:00,
2013-02-07 01:30:00,21.9,8.6,30.33,WNW,292,0.0,1.0,56,0.00,,,-99.99,WeatherLink 5.7,2013-02-07 06:30:00,
2013-02-07 01:41:00,21.4,7.7,30.34,WNW,292,0.0,2.0,55,0.00,,,-99.99,WeatherLink 5.7,2013-02-07 06:41:00,
2013-02-07 01:51:00,21.1,7.8,30.34,WNW,292,0.0,1.0,56,0.00,,,-99.99,WeatherLink 5.7,2013-02-07 06:51:00,
2013-02-07 02:00:00,20.6,9.3,30.34,North,-999,0.0,0.0,61,0.00,,,-99.99,WeatherLink 5.7,2013-02-07 07:00:00,
2013-02-07 02:11:00,20.2,7.8,30.33,NW,315,0.0,2.0,58,0.00,,,-99.99,WeatherLink 5.7,2013-02-07 07:11:00,
2013-02-07 02:21:00,20.1,6.9,30.34,NNW,337,0.0,1.0,56,0.00,,,-99.99,WeatherLink 5.7,2013-02-07 07:21:00,
2013-02-07 02:31:00,20.3,6.7,30.35,NNW,337,0.0,1.0,55,0.00,,,-99.99,WeatherLink 5.7,2013-02-07 07:31:00,
2013-02-07 02:40:00,20.3,7.1,30.34,NW,315,0.0,3.0,56,0.00,,,-99.99,WeatherLink 5.7,2013-02-07 07:40:00,
2013-02-07 02:51:00,20.3,7.5,30.36,NW,315,0.0,1.0,57,0.00,,,-99.99,WeatherLink 5.7,2013-02-07 07:51:00,
2013-02-07 03:01:00,20.2,7.0,30.36,NW,315,0.0,3.0,56,0.00,,,-99.99,WeatherLink 5.7,2013-02-07 08:01:00,
2013-02-07 03:11:00,20.2,8.5,30.36,West,270,0.0,1.0,60,0.00,,,-99.99,WeatherLink 5.7,2013-02-07 08:11:00,
2013-02-07 03:20:00,19.9,7.9,30.36,West,270,1.0,2.0,59,0.00,,,-99.99,WeatherLink 5.7,2013-02-07 08:20:00,
2013-02-07 03:31:00,19.7,7.7,30.36,WNW,292,2.0,3.0,59,0.00,,,-99.99,WeatherLink 5.7,2013-02-07 08:31:00,
2013-02-07 03:41:00,19.5,7.5,30.36,NW,315,2.0,3.0,59,0.00,,,-99.99,WeatherLink 5.7,2013-02-07 08:41:00,
2013-02-07 03:50:00,19.7,6.9,30.36,NW,315,2.0,4.0,57,0.00,,,-99.99,WeatherLink 5.7,2013-02-07 08:50:00,
2013-02-07 04:00:00,20.0,7.2,30.36,WNW,292,0.0,3.0,57,0.00,,,-99.99,WeatherLink 5.7,2013-02-07 09:00:00,
2013-02-07 04:11:00,19.8,8.1,30.37,North,-999,0.0,0.0,60,0.00,,,-99.99,WeatherLink 5.7,2013-02-07 09:11:00,
2013-02-07 04:21:00,19.5,6.3,30.37,North,-999,0.0,0.0,56,0.00,,,-99.99,WeatherLink 5.7,2013-02-07 09:21:00,
2013-02-07 04:30:00,19.3,6.5,30.39,WNW,292,0.0,1.0,57,0.00,,,-99.99,WeatherLink 5.7,2013-02-07 09:30:00,
2013-02-07 04:40:00,19.2,7.9,30.39,WNW,292,0.0,1.0,61,0.00,,,-99.99,WeatherLink 5.7,2013-02-07 09:40:00,
2013-02-07 04:51:00,19.1,7.8,30.37,WNW,292,0.0,1.0,61,0.00,,,-99.99,WeatherLink 5.7,2013-02-07 09:51:00,
2013-02-07 05:01:00,19.2,6.8,30.38,WNW,292,1.0,2.0,58,0.00,,,-99.99,WeatherLink 5.7,2013-02-07 10:01:00,
2013-02-07 05:10:00,19.3,6.9,30.39,NW,315,1.0,3.0,58,0.00,,,-99.99,WeatherLink 5.7,2013-02-07 10:10:00,
2013-02-07 05:21:00,19.2,6.4,30.39,West,270,1.0,2.0,57,0.00,,,-99.99,WeatherLink 5.7,2013-02-07 10:21:00,
2013-02-07 05:31:00,19.3,6.5,30.38,West,270,1.0,3.0,57,0.00,,,-99.99,WeatherLink 5.7,2013-02-07 10:31:00,
2013-02-07 05:41:00,19.1,8.2,30.39,West,270,0.0,2.0,62,0.00,,,-99.99,WeatherLink 5.7,2013-02-07 10:41:00,
2013-02-07 05:50:00,18.7,8.2,30.38,North,-999,0.0,0.0,63,0.00,,,-99.99,WeatherLink 5.7,2013-02-07 10:50:00,
2013-02-07 06:01:00,18.4,7.9,30.38,North,-999,0.0,0.0,63,0.00,,,-99.99,WeatherLink 5.7,2013-02-07 11:01:00,
2013-02-07 06:11:00,18.4,8.2,30.38,North,-999,0.0,0.0,64,0.00,,,-99.99,WeatherLink 5.7,2013-02-07 11:11:00,
2013-02-07 06:21:00,18.4,7.5,30.39,West,270,0.0,2.0,62,0.00,,,-99.99,WeatherLink 5.7,2013-02-07 11:21:00,
2013-02-07 06:31:00,18.7,8.9,30.40,North,-999,0.0,0.0,65,0.00,,,-99.99,WeatherLink 5.7,2013-02-07 11:31:00,
2013-02-07 06:41:00,18.7,9.6,30.41,North,-999,0.0,0.0,67,0.00,,,-99.99,WeatherLink 5.7,2013-02-07 11:41:00,
2013-02-07 06:50:00,18.6,10.1,30.41,North,-999,0.0,0.0,69,0.00,,,-99.99,WeatherLink 5.7,2013-02-07 11:50:00,
2013-02-07 07:00:00,18.8,9.6,30.42,West,270,0.0,2.0,67,0.00,,,-99.99,WeatherLink 5.7,2013-02-07 12:00:00,
2013-02-07 07:11:00,19.0,8.8,30.43,West,270,0.0,1.0,64,0.00,,,-99.99,WeatherLink 5.7,2013-02-07 12:11:00,
2013-02-07 07:21:00,19.1,8.6,30.43,West,270,0.0,2.0,63,0.00,,,-99.99,WeatherLink 5.7,2013-02-07 12:21:00,
2013-02-07 07:30:00,19.1,9.3,30.44,West,270,0.0,1.0,65,0.00,,,-99.99,WeatherLink 5.7,2013-02-07 12:30:00,
2013-02-07 07:41:00,19.3,9.4,30.44,North,-999,0.0,0.0,65,0.00,,,-99.99,WeatherLink 5.7,2013-02-07 12:41:00,
2013-02-07 07:51:00,19.5,9.6,30.44,West,270,0.0,1.0,65,0.00,,,-99.99,WeatherLink 5.7,2013-02-07 12:51:00,
2013-02-07 08:01:00,19.9,9.7,30.44,North,-999,0.0,0.0,64,0.00,,,-99.99,WeatherLink 5.7,2013-02-07 13:01:00,
2013-02-07 08:10:00,20.3,9.7,30.45,North,-999,0.0,0.0,63,0.00,,,-99.99,WeatherLink 5.7,2013-02-07 13:10:00,
2013-02-07 08:20:00,20.7,9.4,30.45,West,270,0.0,2.0,61,0.00,,,-99.99,WeatherLink 5.7,2013-02-07 13:20:00,
2013-02-07 08:31:00,21.3,9.6,30.45,WNW,292,0.0,2.0,60,0.00,,,-99.99,WeatherLink 5.7,2013-02-07 13:31:00,
2013-02-07 08:41:00,21.7,9.2,30.45,WNW,292,0.0,1.0,58,0.00,,,-99.99,WeatherLink 5.7,2013-02-07 13:41:00,
2013-02-07 08:50:00,22.0,9.1,30.45,WNW,292,0.0,2.0,57,0.00,,,-99.99,WeatherLink 5.7,2013-02-07 13:50:00,
2013-02-07 09:00:00,22.4,9.1,30.45,WNW,292,0.0,2.0,56,0.00,,,-99.99,WeatherLink 5.7,2013-02-07 14:00:00,
2013-02-07 09:11:00,22.9,9.9,30.45,WNW,292,0.0,1.0,57,0.00,,,-99.99,WeatherLink 5.7,2013-02-07 14:11:00,
2013-02-07 09:20:00,23.5,10.5,30.44,WNW,292,0.0,1.0,57,0.00,,,-99.99,WeatherLink 5.7,2013-02-07 14:20:00,
2013-02-07 09:30:00,24.0,10.6,30.45,WNW,292,0.0,2.0,56,0.00,,,-99.99,WeatherLink 5.7,2013-02-07 14:30:00,
2013-02-07 09:42:00,24.4,10.5,30.45,WNW,292,0.0,2.0,55,0.00,,,-99.99,WeatherLink 5.7,2013-02-07 14:42:00,
2013-02-07 09:51:00,24.8,10.5,30.45,WNW,292,0.0,2.0,54,0.00,,,-99.99,WeatherLink 5.7,2013-02-07 14:51:00,
2013-02-07 10:01:00,25.3,11.0,30.45,WNW,292,0.0,1.0,54,0.00,,,-99.99,WeatherLink 5.7,2013-02-07 15:01:00,
2013-02-07 10:11:00,26.1,11.3,30.45,WNW,292,0.0,2.0,53,0.00,,,-99.99,WeatherLink 5.7,2013-02-07 15:11:00,
2013-02-07 10:21:00,26.8,11.1,30.44,North,0,0.0,2.0,51,0.00,,,-99.99,WeatherLink 5.7,2013-02-07 15:21:00,
2013-02-07 10:31:00,27.3,11.1,30.45,North,0,0.0,2.0,50,0.00,,,-99.99,WeatherLink 5.7,2013-02-07 15:31:00,
2013-02-07 10:41:00,27.9,12.1,30.45,North,0,0.0,1.0,51,0.00,,,-99.99,WeatherLink 5.7,2013-02-07 15:41:00,
2013-02-07 10:51:00,28.4,11.2,30.45,North,0,1.0,2.0,48,0.00,,,-99.99,WeatherLink 5.7,2013-02-07 15:51:00,
2013-02-07 11:01:00,28.7,11.9,30.45,ESE,112,0.0,3.0,49,0.00,,,-99.99,WeatherLink 5.7,2013-02-07 16:01:00,
2013-02-07 11:11:00,29.5,11.2,30.44,ESE,112,1.0,3.0,46,0.00,,,-99.99,WeatherLink 5.7,2013-02-07 16:11:00,
2013-02-07 11:21:00,29.4,11.6,30.44,ESE,112,2.0,5.0,47,0.00,,,-99.99,WeatherLink 5.7,2013-02-07 16:21:00,
2013-02-07 11:31:00,29.8,11.0,30.44,ESE,112,2.0,4.0,45,0.00,,,-99.99,WeatherLink 5.7,2013-02-07 16:31:00,
2013-02-07 11:41:00,30.2,10.9,30.43,ESE,112,2.0,4.0,44,0.00,,,-99.99,WeatherLink 5.7,2013-02-07 16:41:00,
2013-02-07 11:51:00,30.6,11.7,30.43,SE,135,2.0,4.0,45,0.00,,,-99.99,WeatherLink 5.7,2013-02-07 16:51:00,
2013-02-07 12:01:00,31.1,11.2,30.44,SSE,157,1.0,3.0,43,0.00,,,-99.99,WeatherLink 5.7,2013-02-07 17:01:00,
2013-02-07 12:11:00,31.0,12.1,30.42,ESE,112,2.0,6.0,45,0.00,,,-99.99,WeatherLink 5.7,2013-02-07 17:11:00,
2013-02-07 12:21:00,30.9,12.0,30.42,SE,135,1.0,5.0,45,0.00,,,-99.99,WeatherLink 5.7,2013-02-07 17:21:00,
2013-02-07 12:31:00,30.8,12.9,30.41,East,90,1.0,4.0,47,0.00,,,-99.99,WeatherLink 5.7,2013-02-07 17:31:00,
2013-02-07 12:41:00,30.8,11.9,30.42,East,90,1.0,3.0,45,0.00,,,-99.99,WeatherLink 5.7,2013-02-07 17:41:00,
2013-02-07 12:51:00,30.7,11.8,30.42,SSE,157,1.0,4.0,45,0.00,,,-99.99,WeatherLink 5.7,2013-02-07 17:51:00,
2013-02-07 13:01:00,31.1,12.7,30.41,ESE,112,1.0,4.0,46,0.00,,,-99.99,WeatherLink 5.7,2013-02-07 18:01:00,
2013-02-07 13:11:00,31.1,13.2,30.41,SE,135,2.0,3.0,47,0.00,,,-99.99,WeatherLink 5.7,2013-02-07 18:11:00,
2013-02-07 13:21:00,30.7,12.3,30.41,SE,135,2.0,4.0,46,0.00,,,-99.99,WeatherLink 5.7,2013-02-07 18:21:00,
2013-02-07 13:31:00,31.0,12.6,30.41,ESE,112,1.0,5.0,46,0.00,,,-99.99,WeatherLink 5.7,2013-02-07 18:31:00,
2013-02-07 13:41:00,31.2,12.8,30.39,SE,135,1.0,4.0,46,0.00,,,-99.99,WeatherLink 5.7,2013-02-07 18:41:00,
2013-02-07 13:51:00,30.8,12.9,30.39,ESE,112,2.0,5.0,47,0.00,,,-99.99,WeatherLink 5.7,2013-02-07 18:51:00,
2013-02-07 14:01:00,30.5,12.2,30.39,SE,135,2.0,4.0,46,0.00,,,-99.99,WeatherLink 5.7,2013-02-07 19:01:00,
2013-02-07 14:11:00,30.4,12.5,30.39,SE,135,2.0,4.0,47,0.00,,,-99.99,WeatherLink 5.7,2013-02-07 19:11:00,
2013-02-07 14:21:00,30.8,12.9,30.39,East,90,2.0,5.0,47,0.00,,,-99.99,WeatherLink 5.7,2013-02-07 19:21:00,
2013-02-07 14:31:00,30.7,12.3,30.39,ESE,112,2.0,4.0,46,0.00,,,-99.99,WeatherLink 5.7,2013-02-07 19:31:00,
2013-02-07 14:41:00,30.3,12.0,30.38,SE,135,2.0,4.0,46,0.00,,,-99.99,WeatherLink 5.7,2013-02-07 19:41:00,
2013-02-07 14:51:00,30.2,11.9,30.37,ESE,112,2.0,4.0,46,0.00,,,-99.99,WeatherLink 5.7,2013-02-07 19:51:00,
2013-02-07 15:01:00,30.3,12.0,30.37,ESE,112,2.0,4.0,46,0.00,,,-99.99,WeatherLink 5.7,2013-02-07 20:01:00,
2013-02-07 15:11:00,30.5,11.1,30.38,SE,135,2.0,5.0,44,0.00,,,-99.99,WeatherLink 5.7,2013-02-07 20:11:00,
2013-02-07 15:21:00,30.5,11.7,30.38,ESE,112,2.0,5.0,45,0.00,,,-99.99,WeatherLink 5.7,2013-02-07 20:21:00,
2013-02-07 15:31:00,30.3,12.0,30.37,SE,135,2.0,4.0,46,0.00,,,-99.99,WeatherLink 5.7,2013-02-07 20:31:00,
2013-02-07 15:41:00,30.2,12.4,30.37,SE,135,2.0,5.0,47,0.00,,,-99.99,WeatherLink 5.7,2013-02-07 20:41:00,
2013-02-07 15:51:00,30.1,12.3,30.37,SE,135,2.0,4.0,47,0.00,,,-99.99,WeatherLink 5.7,2013-02-07 20:51:00,
2013-02-07 16:01:00,30.1,13.2,30.36,ESE,112,2.0,3.0,49,0.00,,,-99.99,WeatherLink 5.7,2013-02-07 21:01:00,
2013-02-07 16:11:00,30.2,13.3,30.36,ESE,112,2.0,5.0,49,0.00,,,-99.99,WeatherLink 5.7,2013-02-07 21:11:00,
2013-02-07 16:21:00,30.0,13.6,30.36,SE,135,3.0,6.0,50,0.00,,,-99.99,WeatherLink 5.7,2013-02-07 21:21:00,
2013-02-07 16:31:00,29.5,12.7,30.36,SE,135,3.0,6.0,49,0.00,,,-99.99,WeatherLink 5.7,2013-02-07 21:31:00,
2013-02-07 16:41:00,29.3,12.5,30.35,ESE,112,3.0,6.0,49,0.00,,,-99.99,WeatherLink 5.7,2013-02-07 21:41:00,
2013-02-07 16:51:00,29.0,12.2,30.35,SE,135,3.0,5.0,49,0.00,,,-99.99,WeatherLink 5.7,2013-02-07 21:51:00,
2013-02-07 17:01:00,28.7,11.9,30.35,SE,135,2.0,5.0,49,0.00,,,-99.99,WeatherLink 5.7,2013-02-07 22:01:00,
2013-02-07 17:11:00,28.6,12.3,30.35,ESE,112,2.0,3.0,50,0.00,,,-99.99,WeatherLink 5.7,2013-02-07 22:11:00,
2013-02-07 17:21:00,28.5,11.3,30.36,East,90,2.0,5.0,48,0.00,,,-99.99,WeatherLink 5.7,2013-02-07 22:21:00,
2013-02-07 17:31:00,28.2,11.0,30.36,SE,135,2.0,4.0,48,0.00,,,-99.99,WeatherLink 5.7,2013-02-07 22:31:00,
2013-02-07 17:41:00,28.0,10.8,30.35,ESE,112,3.0,5.0,48,0.00,,,-99.99,WeatherLink 5.7,2013-02-07 22:41:00,
2013-02-07 17:51:00,27.8,10.6,30.36,SE,135,2.0,5.0,48,0.00,,,-99.99,WeatherLink 5.7,2013-02-07 22:51:00,
2013-02-07 18:01:00,27.6,10.9,30.35,ESE,112,2.0,5.0,49,0.00,,,-99.99,WeatherLink 5.7,2013-02-07 23:01:00,
2013-02-07 18:11:00,27.3,11.1,30.36,ESE,112,1.0,3.0,50,0.00,,,-99.99,WeatherLink 5.7,2013-02-07 23:11:00,
2013-02-07 18:21:00,27.0,11.3,30.36,ESE,112,2.0,3.0,51,0.00,,,-99.99,WeatherLink 5.7,2013-02-07 23:21:00,
2013-02-07 18:31:00,26.9,11.2,30.36,SE,135,2.0,4.0,51,0.00,,,-99.99,WeatherLink 5.7,2013-02-07 23:31:00,
2013-02-07 18:41:00,26.8,11.1,30.36,SE,135,2.0,3.0,51,0.00,,,-99.99,WeatherLink 5.7,2013-02-07 23:41:00,
2013-02-07 18:51:00,26.7,11.4,30.37,SE,135,2.0,3.0,52,0.00,,,-99.99,WeatherLink 5.7,2013-02-07 23:51:00,
2013-02-07 19:01:00,26.5,11.7,30.37,SE,135,1.0,3.0,53,0.00,,,-99.99,WeatherLink 5.7,2013-02-08 00:01:00,
2013-02-07 19:11:00,26.3,11.5,30.37,SE,135,1.0,3.0,53,0.00,,,-99.99,WeatherLink 5.7,2013-02-08 00:11:00,
2013-02-07 19:21:00,26.2,10.9,30.37,SE,135,1.0,3.0,52,0.00,,,-99.99,WeatherLink 5.7,2013-02-08 00:21:00,
2013-02-07 19:31:00,26.1,10.9,30.37,SE,135,1.0,3.0,52,0.00,,,-99.99,WeatherLink 5.7,2013-02-08 00:31:00,
2013-02-07 19:41:00,26.0,11.2,30.37,SE,135,1.0,2.0,53,0.00,,,-99.99,WeatherLink 5.7,2013-02-08 00:41:00,
2013-02-07 19:51:00,25.8,11.0,30.37,SE,135,1.0,2.0,53,0.00,,,-99.99,WeatherLink 5.7,2013-02-08 00:51:00,
2013-02-07 20:01:00,25.8,11.0,30.36,SE,135,0.0,2.0,53,0.00,,,-99.99,WeatherLink 5.7,2013-02-08 01:01:00,
2013-02-07 20:11:00,25.7,10.9,30.36,SE,135,0.0,2.0,53,0.00,,,-99.99,WeatherLink 5.7,2013-02-08 01:11:00,
2013-02-07 20:21:00,25.7,10.9,30.36,SE,135,0.0,2.0,53,0.00,,,-99.99,WeatherLink 5.7,2013-02-08 01:21:00,
2013-02-07 20:31:00,25.7,11.3,30.35,SE,135,1.0,3.0,54,0.00,,,-99.99,WeatherLink 5.7,2013-02-08 01:31:00,
2013-02-07 20:41:00,25.7,11.7,30.35,SE,135,0.0,1.0,55,0.00,,,-99.99,WeatherLink 5.7,2013-02-08 01:41:00,
2013-02-07 20:51:00,25.6,11.2,30.35,SE,135,0.0,1.0,54,0.00,,,-99.99,WeatherLink 5.7,2013-02-08 01:51:00,
2013-02-07 21:01:00,25.5,10.7,30.35,SE,135,0.0,1.0,53,0.00,,,-99.99,WeatherLink 5.7,2013-02-08 02:01:00,
2013-02-07 21:11:00,25.4,11.0,30.34,North,-999,0.0,0.0,54,0.00,,,-99.99,WeatherLink 5.7,2013-02-08 02:11:00,
2013-02-07 21:21:00,25.5,11.6,30.35,SE,135,0.0,1.0,55,0.00,,,-99.99,WeatherLink 5.7,2013-02-08 02:21:00,
2013-02-07 21:31:00,25.6,11.2,30.35,North,-999,0.0,0.0,54,0.00,,,-99.99,WeatherLink 5.7,2013-02-08 02:31:00,
2013-02-07 21:41:00,25.7,11.7,30.34,SE,135,0.0,1.0,55,0.00,,,-99.99,WeatherLink 5.7,2013-02-08 02:41:00,
2013-02-07 21:51:00,25.8,11.8,30.34,North,-999,0.0,1.0,55,0.00,,,-99.99,WeatherLink 5.7,2013-02-08 02:51:00,
2013-02-07 22:01:00,25.9,12.3,30.33,North,-999,0.0,1.0,56,0.00,,,-99.99,WeatherLink 5.7,2013-02-08 03:01:00,
2013-02-07 22:11:00,26.0,12.8,30.33,SE,135,0.0,1.0,57,0.00,,,-99.99,WeatherLink 5.7,2013-02-08 03:11:00,
2013-02-07 22:21:00,26.1,13.7,30.33,SE,135,0.0,1.0,59,0.00,,,-99.99,WeatherLink 5.7,2013-02-08 03:21:00,
2013-02-07 22:31:00,26.3,14.3,30.33,SE,135,0.0,1.0,60,0.00,,,-99.99,WeatherLink 5.7,2013-02-08 03:31:00,
2013-02-07 22:41:00,26.5,14.9,30.32,SE,135,0.0,1.0,61,0.00,,,-99.99,WeatherLink 5.7,2013-02-08 03:41:00,
2013-02-07 22:51:00,26.8,16.2,30.31,SE,135,1.0,3.0,64,0.00,,,-99.99,WeatherLink 5.7,2013-02-08 03:51:00,
2013-02-07 23:01:00,27.2,17.0,30.30,SE,135,1.0,2.0,65,0.00,,,-99.99,WeatherLink 5.7,2013-02-08 04:01:00,
2013-02-07 23:11:00,27.4,17.5,30.29,SE,135,1.0,2.0,66,0.00,,,-99.99,WeatherLink 5.7,2013-02-08 04:11:00,
2013-02-07 23:21:00,27.6,17.7,30.29,East,90,1.0,3.0,66,0.00,,,-99.99,WeatherLink 5.7,2013-02-08 04:21:00,
2013-02-07 23:31:00,27.8,17.9,30.29,East,90,1.0,3.0,66,0.00,,,-99.99,WeatherLink 5.7,2013-02-08 04:31:00,
2013-02-07 23:41:00,27.9,18.4,30.29,East,90,2.0,4.0,67,0.00,,,-99.99,WeatherLink 5.7,2013-02-08 04:41:00,
2013-02-07 23:51:00,28.1,18.5,30.28,East,90,1.0,3.0,67,0.00,,,-99.99,WeatherLink 5.7,2013-02-08 04:51:00,